STARLINK-2263

Last updated on April 24, 2021, 12:02 a.m. UTC

1 48003U 21024AC  21113.25001157 -.01179317  00000-0 -18933-1 0  9999
2 48003  53.0487  56.1466 0001314  50.8673 247.3598 15.55400088  1814
UTC
Height (km)
Latitude
Longitude
Inclination
Orbital Period
UTC large
Height (km)
Speed (km/s)
/
Latitude / Longitude
Inclination (degrees)
Orbital Period (minutes)
Azimuth
Elevation
Range (km)
Doppler Factor
iOS Compass Heading
iOS Angle

Next 30 passes for location: Hong Kong

Rise time Rise Azimuth (degrees) Set time Set Azimuth (degrees) Duration Max altitude (degrees)

No matching passes for this satellites